This is the latest recevied weather packets stored in our database for station/object K9NZF-1. If no packets are shown the sender has not sent any weather packets the latest 10 day(s).
| Time | Temp. | Humidity | Pressure | Rain* | Wind** | Luminosity | Snow |
|---|---|---|---|---|---|---|---|
| 1777494008 | 15.56° C | 68% | 1010.7 hPa | 0 mm | - | 276 W/m² | - |
| 1777493947 | 15.56° C | 67% | 1010.7 hPa | 0 mm | - | 299 W/m² | - |
| 1777493887 | 15.56° C | 68% | 1010.7 hPa | 0 mm | - | 299 W/m² | - |
| 1777493828 | 15.56° C | 69% | 1010.7 hPa | 0 mm | - | 299 W/m² | - |
| 1777493767 | 15.56° C | 70% | 1010.7 hPa | 0 mm | - | 299 W/m² | - |
| 1777493711 | 15.56° C | 70% | 1010.7 hPa | 0 mm | - | 872 W/m² | - |
| 1777493648 | 15.56° C | 72% | 1010.7 hPa | 0 mm | - | 872 W/m² | - |
| 1777493588 | 15.56° C | 70% | 1010.7 hPa | 0 mm | - | 872 W/m² | - |
| 1777493528 | 15.56° C | 69% | 1010.7 hPa | 0 mm | - | 547 W/m² | - |
| 1777493469 | 15.56° C | 67% | 1010.7 hPa | 0 mm | - | 471 W/m² | - |
| 1777493408 | 15.56° C | 71% | 1010.6 hPa | 0 mm | - | 418 W/m² | - |
| 1777493349 | 15.56° C | 69% | 1010.7 hPa | 0 mm | - | 378 W/m² | - |
| 1777493288 | 15.56° C | 67% | 1010.7 hPa | 0 mm | - | 357 W/m² | - |
| 1777493226 | 15.56° C | 68% | 1010.7 hPa | 0 mm | - | 350 W/m² | - |
| 1777493162 | 15.56° C | 71% | 1010.6 hPa | 0 mm | - | 338 W/m² | - |
| 1777493102 | 15° C | 72% | 1010.7 hPa | 0 mm | - | 355 W/m² | - |
| 1777493041 | 15° C | 72% | 1010.6 hPa | 0 mm | - | 378 W/m² | - |
| 1777492981 | 15° C | 71% | 1010.7 hPa | 0 mm | - | 399 W/m² | - |
| 1777492917 | 15° C | 73% | 1010.7 hPa | 0 mm | - | 406 W/m² | - |
| 1777492858 | 15° C | 73% | 1010.6 hPa | 0 mm | - | 385 W/m² | - |
| 1777492800 | 15° C | 74% | 1010.7 hPa | 0 mm | - | 355 W/m² | - |
| 1777492737 | 15° C | 74% | 1010.7 hPa | 0 mm | - | 362 W/m² | - |
| 1777492679 | 15° C | 74% | 1010.7 hPa | 0 mm | - | 367 W/m² | - |
| 1777492619 | 15° C | 74% | 1010.7 hPa | 0 mm | - | 396 W/m² | - |
| 1777492558 | 15° C | 73% | 1010.7 hPa | 0 mm | - | 332 W/m² | - |
* Rain latest hour (hover to see other rain measurements)
** Current wind speed in m/s (hover to see current wind gust speed)